This is the latest recevied weather packets stored in our database for station/object WW6Q. If no packets are shown the sender has not sent any weather packets the latest 10 day(s).
| Time | Temp. | Humidity | Pressure | Rain* | Wind** | Luminosity | Snow |
|---|---|---|---|---|---|---|---|
| 1788386876 | 31.67° C | 64% | 1013.2 hPa | 0 mm | - | 64 W/m² | - |
| 1788386575 | 31.67° C | 64% | 1013.4 hPa | 0 mm | - | 64 W/m² | - |
| 1788386271 | 32.22° C | 63% | 1013.4 hPa | 0 mm | - | 70 W/m² | - |
| 1788385966 | 32.22° C | 63% | 1013.6 hPa | 0 mm | - | 71 W/m² | - |
| 1788385662 | 32.22° C | 65% | 1013.5 hPa | 0 mm | - | 72 W/m² | - |
| 1788385361 | 32.22° C | 61% | 1013.4 hPa | 0 mm | - | 74 W/m² | - |
| 1788385057 | 32.22° C | 60% | 1013.3 hPa | 0 mm | - | 77 W/m² | - |
| 1788384756 | 32.78° C | 60% | 1013.5 hPa | 0 mm | - | 78 W/m² | - |
| 1788384455 | 32.78° C | 59% | 1013.7 hPa | 0 mm | - | 83 W/m² | - |
| 1788384153 | 32.78° C | 59% | 1013.6 hPa | 0 mm | - | 87 W/m² | - |
| 1788383848 | 32.78° C | 58% | 1013.6 hPa | 0 mm | - | 84 W/m² | - |
| 1788383544 | 32.78° C | 57% | 1013.6 hPa | 0 mm | - | 86 W/m² | - |
| 1788383244 | 32.78° C | 60% | 1013.7 hPa | 0 mm | - | 90 W/m² | - |
| 1788382939 | 32.78° C | 56% | 1013.9 hPa | 0 mm | - | 92 W/m² | - |
| 1788382637 | 32.78° C | 60% | 1013.9 hPa | 0 mm | - | 96 W/m² | - |
| 1788382332 | 32.78° C | 61% | 1013.7 hPa | 0 mm | - | 97 W/m² | - |
| 1788382027 | 32.78° C | 57% | 1013.7 hPa | 0 mm | - | 107 W/m² | - |
| 1788381722 | 33.33° C | 57% | 1014 hPa | 0 mm | - | 114 W/m² | - |
| 1788381417 | 33.33° C | 57% | 1013.9 hPa | 0 mm | - | 110 W/m² | - |
| 1788381112 | 33.89° C | 54% | 1014 hPa | 0 mm | - | 132 W/m² | - |
| 1788380807 | 34.44° C | 53% | 1014 hPa | 0 mm | - | 215 W/m² | - |
| 1788380503 | 34.44° C | 52% | 1014.1 hPa | 0 mm | - | 209 W/m² | - |
| 1788380200 | 34.44° C | 50% | 1014.1 hPa | 0 mm | - | 290 W/m² | - |
| 1788379898 | 35° C | 50% | 1014.3 hPa | 0 mm | - | 576 W/m² | - |
| 1788379593 | 35° C | 50% | 1014.1 hPa | 0 mm | - | 566 W/m² | - |
* Rain latest hour (hover to see other rain measurements)
** Current wind speed in m/s (hover to see current wind gust speed)